[[{"header":{"parameterUnit":"m.s-1","parameterCategory":1,"la1":30.2991,"la2":30.254,"lo1":-89.0895,"lo2":-89.0444,"dy":0.0017,"dx":0.0017,"nx":28,"ny":28,"refTime":"2024-10-19T03:00:00:Z","depth":0,"parameterNumber":2,"parameterNumberName":"U-component_of_WINDS"},"data":[0,0,0,0,0,0,0,0,0,0,0,0,0,0,0,0,0,0,0,0,0,0,0,0,0,0,0,0,0,0,0,0,0,0,0,0,0,0,0,0,0,0,0,0,0,0,0,0,0,0,0,0,0,0,0,0,0,0,-3.0276,-3.0275,0,-3.0189,-3.0188,-3.0187,-2.9988,-2.9984,-2.998,-2.9976,-2.9891,-2.9892,-2.9894,0,0,0,0,0,0,0,0,0,0,0,0,0,-3.0271,-3.0273,-3.0276,-3.0275,-3.0274,-3.0189,-3.0188,-3.0187,-2.9989,-2.9984,-2.9979,-2.9974,-2.989,-2.9892,-2.9894,0,0,0,0,0,0,0,0,0,0,0,0,0,-3.0238,-3.0273,-3.0276,-3.0165,-3.0154,-3.019,-3.0188,-3.0187,-2.999,-2.9984,-2.9977,-2.9972,-2.989,-2.9892,-2.9894,-3.0033,0,0,-2.9902,-2.9903,0,0,0,0,0,0,0,0,-3.024,-3.0239,-3.0182,-3.0172,-3.016,-3.0093,-3.0155,-3.0135,-2.9991,-3.0052,-2.9976,-2.9969,-2.9963,-2.9959,-2.9957,-3.0029,-3.0025,-2.9902,-2.9903,-2.9904,-2.9905,0,0,0,0,0,0,0,-3.0243,-3.0241,-3.0242,-3.0182,-3.0168,-3.0119,-3.0108,-3.015,-3.0044,-3.0046,-3.0032,-3.0024,-2.9956,-2.9955,-2.9953,-3.0024,-2.9902,-2.9904,-2.9905,-2.9906,-3.0203,-3.0209,0,0,0,0,0,0,-3.0261,-3.0244,-3.0244,-3.0239,-3.0186,-3.0125,-3.0111,-3.0121,-3.0043,-3.0025,-3.0029,-3.0015,-2.9954,-2.9951,-2.995,-3.0105,-2.9904,-2.9906,-2.9908,-3.0196,-3.0204,-3.0211,0,0,0,0,0,0,-3.0262,-3.0263,-3.0248,-3.0238,-3.0232,-3.0131,-3.0143,-3.0122,-3.0121,-3.003,-3.001,-3.0048,-2.9949,-2.9946,-3.0013,-3.0099,-2.9908,-2.991,-3.0189,-3.0199,-3.0208,-3.0419,0,0,0,0,0,0,-3.0262,-3.0264,-3.0316,-3.024,-3.0233,-3.0313,-3.0149,-3.0125,-3.0125,-3.0105,-3.0041,-3.0025,-2.9944,-3.001,-3.0015,-3.0099,-2.9912,-3.018,-3.0193,-3.0204,-3.0404,-3.0435,-3.0461,0,0,0,0,0,-3.0263,-3.038,-3.0319,-3.0321,-3.0295,-3.0318,-3.0314,-3.0218,-3.0133,-3.0184,-3.0125,-3.0027,-3.0089,-3.0019,-3.0023,-3.0109,-3.0175,-3.0189,-3.0204,-3.0391,-3.0429,-3.046,0,0,0,0,0,0,-3.0471,-3.0368,-3.03,-3.0396,-3.0367,-3.0285,-3.0346,-3.0261,-3.0257,-3.0239,-3.0119,-3.0107,-3.019,-3.0155,-3.0079,-3.0237,-3.0116,-3.0132,-3.0257,-3.0292,-3.032,-3.0327,-2.9913,0,0,0,0,0,-3.0527,-3.0553,-3.0463,-3.0556,-3.0545,-3.0449,-3.0455,-3.0382,-3.0348,-3.0336,-3.0281,-3.0253,-3.0265,-3.0277,-3.0283,-3.0397,-3.038,-3.0458,-3.0487,-3.0511,-3.0526,-3.0583,-3.0616,-3.0259,-3.0259,-3.0258,0,0,-3.0645,-3.0592,-3.0617,-3.0597,-3.0566,-3.0596,-3.044,-3.0479,-3.05,-3.0342,-3.0401,-3.036,-3.032,-3.0411,-3.0448,-3.0385,-3.0621,-3.0529,-3.0549,-3.0551,-3.0601,-3.0635,-3.0665,-3.0269,-3.0267,-3.0265,0,0,-3.0875,-3.0838,-3.0911,-3.0883,-3.0837,-3.0772,-3.079,-3.0719,-3.0686,-3.0742,-3.0624,-3.0647,-3.0672,-3.0648,-3.0639,-3.0858,-3.0768,-3.0863,-3.1013,-3.107,-3.1098,-3.1122,-3.12,-3.123,-3.0879,-3.0879,-3.088,0,-3.1029,-3.1068,-3.096,-3.1006,-3.1001,-3.0856,-3.0929,-3.0907,-3.0867,-3.0867,-3.0796,-3.0822,-3.0785,-3.0868,-3.0921,-3.0918,-3.0935,-3.0871,-3.1102,-3.1126,-3.1147,-3.122,-3.1249,-3.0891,-3.089,-3.0889,-3.0887,0,-3.1258,-3.1288,-3.1352,-3.1315,-3.1316,-3.1377,-3.1277,-3.1292,-3.1219,-3.1161,-3.122,-3.117,-3.1163,-3.1177,-3.1107,-3.1249,-3.1211,-3.1124,-3.0999,-3.1195,-3.1261,-3.1288,-3.0908,-3.0904,-3.09,-3.0897,0,0,-3.162,-3.1519,-3.1545,-3.1525,-3.1463,-3.1484,-3.1537,-3.1528,-3.1543,-3.152,-3.1561,-3.1584,-3.1501,-3.1491,-3.1416,-3.1466,-3.1642,-3.1371,-3.1368,-3.1423,-3.1795,-3.1862,-3.1896,-3.158,-3.1585,-3.1589,-3.1798,0,-3.1836,-3.1919,-3.1822,-3.1926,-3.1951,-3.1813,-3.1859,-3.1826,-3.1773,-3.1787,-3.1728,-3.1746,-3.1635,-3.1628,-3.1671,-3.1612,-3.1715,-3.1595,-3.1618,-3.1621,-3.1634,-3.1931,-3.2002,-3.2202,-3.1823,-3.1828,-3.1831,0,-3.21,-3.2087,-3.2193,-3.2122,-3.2129,-3.2172,-3.2155,-3.217,-3.213,-3.2087,-3.2075,-3.1984,-3.2031,-3.1909,-3.1971,-3.1892,-3.1895,-3.1867,-3.1873,-3.1872,-3.1739,-3.1939,-3.2263,-3.2294,-3.1871,-3.1867,-3.1864,0,-3.2353,-3.2362,-3.2426,-3.2413,-3.2332,-3.2365,-3.2333,-3.2286,-3.2287,-3.2272,-3.2271,-3.2264,-3.226,-3.2256,-3.2165,-3.2085,-3.2239,-3.211,-3.2206,-3.2208,-3.2246,-3.2245,-3.2576,-3.2247,-3.2247,-3.2246,-3.2246,0,-3.2605,-3.2676,-3.2538,-3.2578,-3.2652,-3.2539,-3.2617,-3.257,-3.2529,-3.2558,-3.2438,-3.2467,-3.2345,-3.2362,-3.2291,-3.2353,-3.2353,-3.232,-3.2301,-3.2331,-3.2336,-3.2333,-3.2317,-3.2254,-3.2252,-3.2251,-3.2249,0,-3.2901,-3.2812,-3.2872,-3.2789,-3.277,-3.2829,-3.2758,-3.2791,-3.2729,-3.2766,-3.2769,-3.2672,-3.2684,-3.2593,-3.259,-3.2542,-3.2638,-3.2594,-3.2652,-3.2639,-3.274,-3.2732,-3.3082,-3.3122,-3.2768,-3.2771,-3.2774,0,-3.3069,-3.3119,-3.3041,-3.305,-3.3024,-3.3041,-3.304,-3.293,-3.2935,-3.289,-3.293,-3.2932,-3.2928,-3.2955,-3.2885,-3.2881,-3.2837,-3.2959,-3.2836,-3.2864,-3.2839,-3.2837,-3.2842,-3.2986,-3.2991,-3.2994,-3.2997,0,-3.3375,-3.3327,-3.333,-3.3318,-3.3319,-3.3304,-3.3282,-3.3297,-3.3177,-3.3188,-3.3198,-3.3196,-3.319,-3.3195,-3.3176,-3.3143,-3.3052,-3.3036,-3.3058,-3.3091,-3.3122,-3.3107,-3.2723,-3.3029,-3.3026,-3.3024,-3.3022,-3.3021,-3.3612,-3.365,-3.36,-3.3606,-3.3577,-3.3558,-3.3585,-3.3524,-3.3531,-3.3517,-3.3452,-3.3475,-3.343,-3.3396,-3.3371,-3.3387,-3.3328,-3.3361,-3.3369,-3.3379,-3.3397,-3.3119,-3.3384,-3.3383,-3.3382,-3.3381,-3.338,0,-3.3912,-3.3872,-3.3879,-3.385,-3.3855,-3.3765,-3.3734,-3.3745,-3.3766,-3.3732,-3.373,-3.3742,-3.3744,-3.3673,-3.3667,-3.3693,-3.3651,-3.3696,-3.3693,-3.3687,-3.345,-3.3432,-3.373,-3.373,-3.373,-3.373,-3.373,-3.373,-3.4069,-3.4128,-3.4075,-3.4118,-3.4077,-3.4097,-3.4087,-3.4069,-3.404,-3.4059,-3.406,-3.4012,-3.3963,-3.3952,-3.395,-3.3929,-3.3932,-3.3992,-3.3957,-3.3738,-3.3704,-3.3671,-3.3654,-3.3993,-3.3994,-3.4192,-3.4194,-3.4195]},{"header":{"parameterUnit":"m.s-1","parameterCategory":1,"la1":30.2991,"la2":30.254,"lo1":-89.0895,"lo2":-89.0444,"dy":0.0017,"dx":0.0017,"nx":28,"ny":28,"refTime":"2024-10-19T03:00:00:Z","depth":0,"parameterNumber":3,"parameterNumberName":"V-component_of_WINDS"},"data":[0,0,0,0,0,0,0,0,0,0,0,0,0,0,0,0,0,0,0,0,0,0,0,0,0,0,0,0,0,0,0,0,0,0,0,0,0,0,0,0,0,0,0,0,0,0,0,0,0,0,0,0,0,0,0,0,0,0,-1.7325,-1.7326,0,-1.7376,-1.7376,-1.7377,-1.7396,-1.7396,-1.7396,-1.7396,-1.7447,-1.7449,-1.745,0,0,0,0,0,0,0,0,0,0,0,0,0,-1.7244,-1.7245,-1.7325,-1.7326,-1.7326,-1.7376,-1.7376,-1.7377,-1.7396,-1.7396,-1.7396,-1.7396,-1.7447,-1.7448,-1.745,0,0,0,0,0,0,0,0,0,0,0,0,0,-1.7285,-1.7246,-1.7325,-1.7342,-1.7344,-1.7375,-1.7376,-1.7377,-1.7396,-1.7396,-1.7396,-1.7396,-1.7446,-1.7448,-1.745,-1.7469,0,0,-1.7457,-1.7458,0,0,0,0,0,0,0,0,-1.7283,-1.7288,-1.7339,-1.7341,-1.7343,-1.7379,-1.7366,-1.7408,-1.7396,-1.7376,-1.7396,-1.7396,-1.7425,-1.7429,-1.7439,-1.7471,-1.7473,-1.7458,-1.7459,-1.746,-1.7461,0,0,0,0,0,0,0,-1.728,-1.7286,-1.7345,-1.7339,-1.7342,-1.7346,-1.7352,-1.7374,-1.7401,-1.7378,-1.738,-1.7385,-1.7426,-1.7436,-1.744,-1.7474,-1.7458,-1.746,-1.7461,-1.7462,-1.7523,-1.7523,0,0,0,0,0,0,-1.7274,-1.7283,-1.7343,-1.7347,-1.7312,-1.7348,-1.7354,-1.7368,-1.7401,-1.7406,-1.7386,-1.7386,-1.7433,-1.7437,-1.7442,-1.7465,-1.746,-1.7462,-1.7463,-1.7523,-1.7523,-1.7523,0,0,0,0,0,0,-1.7272,-1.7279,-1.7341,-1.7315,-1.7324,-1.735,-1.7365,-1.7369,-1.738,-1.7407,-1.7411,-1.7392,-1.7433,-1.7439,-1.7462,-1.7467,-1.7463,-1.7465,-1.7522,-1.7523,-1.7523,-1.7511,0,0,0,0,0,0,-1.727,-1.7279,-1.7286,-1.7315,-1.7325,-1.7361,-1.7365,-1.737,-1.7384,-1.7385,-1.7413,-1.7418,-1.7433,-1.7458,-1.7464,-1.747,-1.7467,-1.7522,-1.7523,-1.7523,-1.7511,-1.7511,-1.7511,0,0,0,0,0,-1.7267,-1.7281,-1.7287,-1.7294,-1.7335,-1.7361,-1.7366,-1.7384,-1.7384,-1.7391,-1.7409,-1.7417,-1.7465,-1.746,-1.7467,-1.7474,-1.7522,-1.7522,-1.7523,-1.7511,-1.7511,-1.7511,0,0,0,0,0,0,-1.7252,-1.7285,-1.7292,-1.7316,-1.7335,-1.7364,-1.7374,-1.7383,-1.7403,-1.7403,-1.7423,-1.743,-1.7451,-1.7465,-1.7459,-1.7493,-1.7494,-1.7496,-1.7483,-1.7483,-1.7483,-1.7479,-1.7469,0,0,0,0,0,-1.7251,-1.727,-1.7298,-1.7316,-1.7326,-1.7348,-1.736,-1.7372,-1.7393,-1.7401,-1.742,-1.744,-1.7459,-1.7472,-1.7492,-1.7513,-1.7519,-1.7521,-1.7521,-1.7521,-1.7522,-1.7534,-1.7535,-1.7525,-1.7525,-1.7525,0,0,-1.725,-1.7271,-1.7281,-1.7314,-1.733,-1.7348,-1.7355,-1.7374,-1.7388,-1.7404,-1.7427,-1.7441,-1.7465,-1.7487,-1.7497,-1.7499,-1.7526,-1.7521,-1.7521,-1.7523,-1.7534,-1.7535,-1.7536,-1.7526,-1.7526,-1.7526,0,0,-1.7258,-1.7275,-1.7292,-1.7308,-1.7333,-1.7348,-1.7352,-1.7379,-1.739,-1.7413,-1.7425,-1.7441,-1.7475,-1.7491,-1.7503,-1.7515,-1.7524,-1.7521,-1.7521,-1.7532,-1.7532,-1.7533,-1.7537,-1.7538,-1.7522,-1.7522,-1.7522,0,-1.7253,-1.7282,-1.73,-1.7318,-1.7331,-1.7347,-1.7363,-1.7378,-1.7408,-1.7417,-1.7418,-1.746,-1.7477,-1.7502,-1.7505,-1.7515,-1.752,-1.7518,-1.7531,-1.7532,-1.7533,-1.7537,-1.7538,-1.7522,-1.7522,-1.7522,-1.7522,0,-1.7275,-1.7294,-1.7304,-1.7333,-1.7347,-1.7365,-1.7385,-1.7397,-1.7407,-1.7422,-1.7444,-1.7465,-1.7489,-1.7496,-1.7506,-1.7522,-1.7523,-1.7527,-1.7529,-1.7533,-1.7537,-1.7539,-1.7521,-1.7521,-1.7522,-1.7522,0,0,-1.7275,-1.7312,-1.7315,-1.7328,-1.7356,-1.7371,-1.7389,-1.7412,-1.7422,-1.7442,-1.7457,-1.7484,-1.7488,-1.7503,-1.7514,-1.7524,-1.7532,-1.7527,-1.7528,-1.7527,-1.7551,-1.7547,-1.7548,-1.7537,-1.7538,-1.7538,-1.7549,0,-1.7285,-1.7318,-1.7334,-1.736,-1.7377,-1.7391,-1.7407,-1.7425,-1.7439,-1.7455,-1.747,-1.7489,-1.7493,-1.7502,-1.7512,-1.7528,-1.7537,-1.7528,-1.7551,-1.7552,-1.7545,-1.7551,-1.7547,-1.7556,-1.755,-1.7551,-1.7551,0,-1.7303,-1.7322,-1.7349,-1.7374,-1.7382,-1.7396,-1.7418,-1.7434,-1.7455,-1.7464,-1.7479,-1.749,-1.7509,-1.7509,-1.7535,-1.7528,-1.7539,-1.7548,-1.7549,-1.7551,-1.7551,-1.7553,-1.756,-1.7561,-1.7553,-1.7553,-1.7553,0,-1.7299,-1.7332,-1.7352,-1.7363,-1.7393,-1.7402,-1.7415,-1.7436,-1.7448,-1.7467,-1.7475,-1.7496,-1.7508,-1.7523,-1.754,-1.7538,-1.7563,-1.7565,-1.7571,-1.7571,-1.7576,-1.7575,-1.7584,-1.7583,-1.7583,-1.7583,-1.7582,0,-1.731,-1.7325,-1.7351,-1.7364,-1.7381,-1.7399,-1.7417,-1.743,-1.7449,-1.7464,-1.7477,-1.7491,-1.7512,-1.7528,-1.7541,-1.756,-1.7565,-1.7572,-1.7576,-1.7571,-1.757,-1.7578,-1.7578,-1.7583,-1.7583,-1.7583,-1.7583,0,-1.7309,-1.7327,-1.735,-1.7376,-1.7383,-1.7395,-1.7417,-1.7429,-1.7443,-1.7462,-1.7467,-1.7489,-1.7509,-1.7527,-1.7553,-1.7562,-1.7581,-1.7585,-1.7573,-1.7575,-1.758,-1.7579,-1.7594,-1.7596,-1.7594,-1.7594,-1.7594,0,-1.7314,-1.7327,-1.7354,-1.7365,-1.7377,-1.7395,-1.7408,-1.7426,-1.7438,-1.7463,-1.7472,-1.7492,-1.751,-1.754,-1.7558,-1.7578,-1.7583,-1.7587,-1.7586,-1.7581,-1.7583,-1.7582,-1.7583,-1.7586,-1.7586,-1.7586,-1.7586,0,-1.7321,-1.7329,-1.7347,-1.7368,-1.7383,-1.74,-1.7418,-1.7426,-1.7447,-1.746,-1.748,-1.7494,-1.752,-1.754,-1.7562,-1.7575,-1.7584,-1.7586,-1.7589,-1.7584,-1.7577,-1.7581,-1.7573,-1.7586,-1.7586,-1.7586,-1.7586,-1.7586,-1.7324,-1.7335,-1.7356,-1.7375,-1.739,-1.7406,-1.7419,-1.7434,-1.7451,-1.7474,-1.7483,-1.7504,-1.7524,-1.7554,-1.7566,-1.7582,-1.7584,-1.7588,-1.7589,-1.7589,-1.7588,-1.7574,-1.7586,-1.7586,-1.7586,-1.7587,-1.7587,0,-1.7331,-1.7345,-1.7363,-1.7387,-1.7401,-1.7409,-1.7428,-1.744,-1.7458,-1.7476,-1.7492,-1.7515,-1.7534,-1.7554,-1.7574,-1.7583,-1.7588,-1.7588,-1.7587,-1.759,-1.7586,-1.7581,-1.7584,-1.7584,-1.7584,-1.7584,-1.7583,-1.7583,-1.7337,-1.7356,-1.7367,-1.7393,-1.7407,-1.7427,-1.7438,-1.7452,-1.7467,-1.7491,-1.7507,-1.752,-1.7538,-1.756,-1.7578,-1.7583,-1.7589,-1.7588,-1.7595,-1.759,-1.759,-1.759,-1.7586,-1.759,-1.759,-1.7598,-1.7598,-1.7598]}]]